{"data":{"norad_id":62527,"intl_designator":"2025-004S","name":"STARLINK-32754","alt_names":[],"object_type":"PAYLOAD","status":"ACTIVE","operator":null,"country":"US","launch_date":"2025-01-08","launch_site_code":"AFETR","launch_vehicle":null,"mission":null,"orbit_class":"UNKNOWN","rcs_meters":null,"size_class":null,"mass_kg":null,"dimensions":null,"purposes":["comms"],"wikipedia_slug":null,"has_3d_model":false,"image_url":null,"decayed_at":null,"tle_current":{"epoch":"2026-05-25T00:43:54.718752Z","epoch_age_seconds":75707,"freshness":"FRESH","line1":"1 62527U 25004S   26145.03049443  .00016474  00000+0  60662-3 0  9992","line2":"2 62527  42.9986 148.7653 0000764 255.4610 104.6157 15.27591556 77189","mean_motion":15.27591556,"eccentricity":7.64e-5,"inclination_deg":42.9986,"raan_deg":148.7653,"arg_perigee_deg":255.461,"mean_anomaly_deg":104.6157,"bstar":0.00060662,"rev_number":7718,"period_min":94.266035599898,"perigee_km":482.49030146244,"apogee_km":483.53868541064,"semimajor_km":6861.1514934365,"source":"CELESTRAK","updated_at":"2026-05-25T13:38:19.705170Z"}}}